Location: Hermaringen
(48.5952°N, 10.2585°E)
Time: 20:26:01
(UTC+00:00)

Vanguard 1 Rocket - Visible Passes

Search period start: 15 February 2026 00:00
Search period end: 25 February 2026 00:00
Orbit: 652 x 4215 km, 34.3° (Epoch: 12 February)

Date Brightness Start Highest point End Pass type
(mag) Time Alt. Az. Time Alt. Az. Time Alt. Az.
15 Feb 11.2 17:58:07 10° W 18:15:31 42° SSW 18:38:28 10° SE visible
15 Feb 11.7 20:28:41 10° W 20:43:53 22° SW 21:00:08 10° S visible
16 Feb 11.1 16:45:00 10° W 17:00:37 47° SSW 17:23:59 10° SE visible
16 Feb 11.5 19:12:44 10° W 19:29:35 30° SW 19:49:33 10° SSE visible
17 Feb 11.3 17:58:32 10° W 18:14:55 38° SSW 18:36:52 10° SSE visible
17 Feb 11.8 20:30:37 10° W 20:42:56 17° SW 20:56:13 10° SSW visible
18 Feb 11.1 16:45:23 10° W 17:00:13 43° SSW 17:22:41 10° SE visible
18 Feb 11.7 19:13:39 10° W 19:28:49 25° SW 19:46:58 10° S visible
19 Feb 11.4 17:59:08 10° W 18:14:22 33° SSW 18:34:54 10° SSE visible
19 Feb 12.0 20:34:28 10° WSW 20:42:03 12° SW 20:50:06 10° SSW visible
20 Feb 11.3 16:45:51 10° W 16:59:51 39° SSW 17:21:09 10° SE visible
20 Feb 11.8 19:15:06 10° W 19:28:06 20° SW 19:43:37 10° S visible
21 Feb 11.6 17:59:58 10° W 18:13:51 28° SSW 18:32:30 10° SSE visible
22 Feb 11.4 16:46:29 10° W 16:59:33 34° SSW 17:19:18 10° SSE visible
22 Feb 12.0 19:17:31 10° WSW 19:27:29 15° SW 19:39:01 10° SSW visible
23 Feb 11.8 18:01:12 10° WSW 18:13:24 23° SW 18:29:30 10° S visible
24 Feb 12.1 19:23:33 10° SW 19:26:57 11° SW 19:30:31 10° SW visible
